Wind_Speed
27 24 19 18 11 6 3 1 2 1 4 4 4 3 5 3 6 6 8 9 9 11 11 10 11 11 11 11 11 11 12 14 15 15 15 17 19 18 19 22 23 24 24 26
34 37 25 18 21 15 10 9 5 5 2 2 1 1 3 1 2 4 5 6 6 7 6 6 7 8 8 10 10 11 13 14 15 16 18 19 21 23 23 23 26 26 26 28
45 45 30 26 23 25 20 16 13 9 9 7 4 3 2 7 4 2 1 1 1 2 3 5 7 6 7 9 11 12 13 16 18 19 21 24 25 26 28 30 30 31 29 31
50 48 38 34 31 31 31 24 18 18 15 10 9 6 5 4 7 6 7 8 8 10 10 9 7 11 11 11 12 14 16 17 20 23 25 27 29 30 31 33 34 36 34 34
50 52 45 40 40 39 41 31 22 20 20 17 15 12 9 8 10 10 10 10 14 14 14 13 13 13 13 14 16 18 21 24 24 25 28 30 31 33 35 36 38 39 37 37
58 60 47 47 45 43 42 36 28 23 24 25 22 18 18 11 13 13 14 15 15 17 16 14 13 15 16 20 24 25 26 26 27 27 29 32 34 36 38 40 42 42 42 40
62 64 55 50 48 47 43 36 32 30 25 32 27 22 24 19 18 18 18 18 16 18 17 18 19 21 24 27 29 31 32 33 33 33 34 36 37 37 40 42 44 45 46 45
70 67 62 56 50 51 49 44 37 36 37 37 32 31 28 25 26 28 27 27 25 26 25 25 26 29 30 33 33 35 36 37 37 37 39 40 42 42 43 46 46 46 47 47
75 72 71 65 62 60 53 47 46 43 42 41 37 35 32 30 33 33 32 34 32 34 33 33 34 36 36 37 39 40 40 41 41 41 42 43 44 47 48 50 51 53 50 51
82 79 79 75 71 65 58 55 54 46 43 41 40 38 40 35 37 36 37 36 37 39 39 40 39 40 41 42 43 44 43 44 46 46 47 49 49 49 48 52 55 55 55 54
86 82 83 83 71 67 66 62 58 52 48 44 42 39 42 43 43 39 39 41 42 42 43 43 44 43 43 44 46 47 47 48 48 49 53 54 51 53 52 57 58 58 58 52
90 88 86 82 77 75 74 67 64 60 53 50 46 42 47 46 48 45 44 43 44 46 48 47 49 48 50 51 51 50 50 51 52 53 53 52 53 56 57 59 61 60 48 54
92 88 86 89 85 76 72 65 64 65 61 54 50 45 50 46 45 44 45 45 47 47 49 50 53 52 52 55 54 55 56 55 54 54 54 55 56 56 58 62 61 48 53 53
96 93 89 85 78 75 72 69 67 68 64 56 51 52 55 53 52 50 50 49 48 48 53 53 54 55 56 58 59 58 60 57 57 58 57 58 60 60 62 62 53 49 50 58
100 94 90 85 86 84 77 76 74 72 66 66 59 59 57 57 56 52 50 52 50 52 55 56 57 58 61 62 63 63 64 62 64 63 63 63 62 62 62 47 50 59 74 76
101 91 90 86 88 88 83 79 79 77 74 69 64 61 61 60 57 55 55 56 56 57 60 60 62 63 67 67 68 67 69 66 66 67 67 66 60 52 52 36 71 71 72 58
96 91 92 87 88 88 90 81 80 78 76 72 65 62 68 64 60 61 62 61 61 62 66 64 66 69 71 72 72 70 69 67 64 61 63 60 57 49 48 49 40 63 73 74
97 93 94 89 93 97 82 82 83 82 81 78 70 70 70 67 67 68 68 67 67 70 70 69 71 73 74 74 72 68 65 64 62 62 62 63 60 54 45 44 49 63 73 78
96 95 92 88 91 88 85 86 86 85 81 79 74 73 72 71 74 74 72 71 75 76 74 74 75 71 69 66 67 68 67 68 67 66 64 62 61 50 46 43 57 63 69 79
98 96 93 90 94 92 85 84 85 85 82 76 73 73 71 72 77 76 76 78 79 78 73 73 70 64 63 68 72 70 70 70 66 65 64 62 51 45 47 45 48 55 66 73
91 96 92 92 93 94 88 87 87 88 78 77 72 71 71 73 76 76 77 78 76 72 68 68 67 67 70 72 72 71 71 71 68 64 63 54 47 45 40 44 47 57 62 68
89 86 90 93 91 92 89 88 89 84 78 76 73 72 73 71 73 72 74 74 71 71 70 70 71 73 74 74 74 77 75 74 71 67 53 45 37 39 42 45 49 51 54 60
85 89 84 91 91 90 88 87 86 83 81 77 73 73 72 72 73 71 72 75 73 74 76 73 73 80 78 79 80 80 79 77 74 57 46 32 35 40 45 48 56 60 60 66
84 74 78 84 90 88 87 86 85 82 80 78 77 76 76 76 77 78 78 78 77 79 78 77 79 82 82 81 82 83 82 76 66 54 39 36 46 53 54 58 61 62 68 75
76 82 85 88 81 84 85 82 82 82 82 82 81 80 79 78 78 81 80 83 85 86 84 83 82 84 82 84 83 82 79 71 59 53 49 45 56 63 62 62 66 72 78 79
80 82 82 83 86 83 78 82 79 80 82 82 80 81 82 82 83 84 85 87 87 85 83 82 82 83 84 79 78 75 75 74 71 67 56 61 57 57 68 81 82 81 83 83
Wind_Direction
260 261 251 275 274 277 273 315 291 129 67 17 34 55 86 102 114 98 86 83 79 81 70 65 57 54 51 53 42 33 25 18 14 12 5 360 1 357 352 354 353 352 349 347
256 256 243 246 268 263 263 251 239 260 239 238 354 38 47 302 131 107 108 93 81 66 63 33 41 31 19 17 18 12 4 359 356 352 350 351 349 345 341 339 340 340 338 339
250 253 250 243 252 264 257 257 241 236 236 236 256 277 260 251 209 214 186 5 280 319 331 1 351 6 359 353 352 349 342 342 342 343 342 344 341 342 339 341 338 339 334 331
248 252 254 248 245 250 260 244 247 245 243 248 238 227 274 275 263 273 273 280 274 275 305 302 322 334 338 331 330 330 330 334 335 337 339 335 334 337 337 337 333 336 327 326
244 248 248 247 246 242 246 250 245 250 250 243 245 239 227 235 264 273 274 271 279 294 303 313 314 318 319 313 314 315 318 322 326 330 330 328 328 330 330 328 327 327 326 321
242 249 246 245 246 246 247 248 247 247 258 252 240 244 246 231 251 258 263 264 271 285 288 300 308 310 308 306 307 309 313 316 319 322 321 320 321 323 323 321 322 322 323 320
244 250 250 246 248 249 250 248 244 240 245 257 253 251 253 249 254 260 263 263 265 271 281 290 292 296 299 299 302 306 307 310 314 317 316 314 315 318 318 317 317 317 319 320
239 241 245 247 246 246 245 245 242 238 236 241 252 257 253 259 257 257 262 266 267 271 274 281 288 291 294 298 299 300 301 304 306 309 310 311 314 315 314 316 316 315 314 317
238 240 244 242 240 239 241 241 241 239 239 239 244 251 260 256 260 263 266 269 272 276 280 283 285 287 289 293 294 295 298 302 305 307 308 311 313 314 317 317 317 316 316 316
236 236 239 240 240 241 243 240 241 241 243 243 242 242 258 257 260 265 270 274 275 276 278 278 280 283 286 289 291 293 297 299 303 306 308 309 311 313 315 314 315 315 315 315
235 235 240 243 244 244 243 244 246 244 240 242 244 244 244 254 256 258 266 272 276 280 283 285 285 285 285 286 288 291 294 298 302 303 304 308 311 313 314 312 313 314 314 310
233 233 237 242 242 242 245 244 245 247 244 241 241 241 244 244 250 253 257 263 270 273 276 281 282 284 286 289 290 292 293 294 298 302 304 305 310 312 314 311 314 316 304 301
230 232 233 237 239 241 247 249 251 251 250 249 246 243 247 248 251 254 258 260 263 271 274 276 280 283 285 286 288 291 292 295 298 299 302 307 307 310 311 312 313 300 297 301
227 229 230 234 240 240 242 246 248 249 249 249 248 244 250 251 251 253 259 262 264 268 271 274 277 280 283 286 288 289 290 294 297 300 302 302 307 311 313 316 311 297 303 300
225 225 227 229 232 234 234 238 240 244 245 246 245 246 248 252 254 255 257 261 262 265 269 273 276 280 281 283 285 287 289 294 295 299 301 304 308 312 314 313 302 287 304 297
223 222 225 227 231 234 235 235 240 241 243 245 246 249 250 252 256 259 259 260 263 267 270 273 277 279 279 281 283 287 291 294 295 297 299 301 305 309 309 309 265 284 300 285
221 221 223 223 229 232 234 235 238 242 244 247 249 251 252 255 258 259 260 263 266 267 269 273 276 278 279 280 282 284 286 289 292 295 296 299 302 308 302 296 270 275 282 280
219 220 222 221 228 231 232 235 238 239 241 243 245 249 253 256 258 259 260 262 265 266 268 271 273 274 277 279 283 286 289 292 294 296 297 297 302 306 299 289 269 265 270 267
220 219 221 221 227 231 231 233 237 240 242 243 244 246 250 254 257 258 260 263 264 265 266 268 268 272 275 279 282 285 289 289 291 293 294 298 300 304 294 276 277 278 274 273
217 218 219 220 225 227 228 230 235 238 240 242 244 246 248 249 253 255 257 258 260 261 265 268 271 272 275 276 278 284 286 288 290 293 296 299 301 295 294 287 282 275 275 276
217 220 219 220 224 227 227 229 233 236 238 240 242 245 247 248 250 254 256 258 262 264 263 265 269 271 274 278 283 285 284 287 289 290 296 295 289 285 279 279 268 272 278 275
216 219 221 222 223 228 228 230 234 237 238 240 241 242 245 249 253 253 256 258 259 260 262 265 269 271 275 279 283 286 288 289 292 297 298 291 286 276 268 266 264 269 270 271
216 216 222 223 224 227 228 230 234 237 239 241 243 246 248 251 253 255 258 262 264 266 267 270 275 278 281 283 288 289 289 292 295 297 291 280 287 279 264 263 271 268 273 274
216 220 218 223 226 228 231 231 234 237 241 243 244 246 247 248 251 254 258 262 265 267 270 273 277 279 282 283 285 286 290 293 295 294 278 276 282 280 275 268 272 284 285 289
207 215 218 218 223 227 230 232 235 236 240 242 245 247 250 252 255 258 260 262 264 268 272 274 277 280 283 284 286 287 289 292 289 288 276 275 286 279 270 271 277 281 285 286
211 221 224 227 221 226 229 233 236 239 240 242 245 247 249 252 255 258 261 265 269 271 274 275 279 281 284 286 286 288 289 290 288 288 270 275 279 260 267 274 278 279 284 288
Height
10965 10969 10970 10969 10971 10971 10972 10971 10970 10971 10971 10973 10972 10971 10969 10970 10969 10969 10969 10971 10971 10969 10970 10971 10971 10971 10970 10969 10969 10969 10967 10966 10965 10964 10962 10960 10958 10955 10953 10950 10948 10945 10942 10939
10958 10957 10966 10969 10965 10968 10970 10970 10970 10969 10969 10971 10972 10971 10971 10971 10970 10970 10970 10971 10972 10972 10971 10972 10971 10971 10970 10969 10967 10967 10966 10965 10963 10962 10960 10957 10955 10953 10951 10947 10945 10942 10939 10936
10948 10946 10959 10965 10965 10961 10965 10966 10968 10969 10968 10968 10968 10969 10970 10971 10971 10971 10972 10972 10972 10972 10973 10973 10972 10971 10970 10969 10967 10965 10964 10963 10962 10960 10958 10955 10953 10951 10948 10945 10941 10937 10934 10932
10937 10939 10948 10955 10959 10960 10955 10961 10963 10965 10966 10966 10966 10966 10966 10968 10970 10970 10971 10972 10973 10973 10974 10972 10970 10969 10968 10968 10966 10964 10963 10961 10959 10957 10955 10953 10950 10947 10943 10940 10936 10932 10929 10927
10928 10926 10936 10943 10946 10949 10949 10953 10958 10958 10960 10962 10962 10963 10964 10965 10965 10967 10969 10969 10968 10969 10968 10967 10967 10965 10964 10964 10963 10962 10960 10958 10955 10953 10951 10948 10946 10943 10939 10935 10932 10929 10926 10922
10914 10910 10926 10931 10934 10938 10941 10947 10953 10955 10954 10955 10956 10959 10959 10961 10962 10964 10965 10966 10966 10966 10964 10964 10963 10962 10961 10961 10959 10958 10955 10953 10951 10948 10946 10945 10942 10937 10933 10929 10926 10922 10919 10915
10904 10903 10914 10920 10924 10927 10934 10939 10945 10950 10952 10945 10950 10952 10955 10956 10957 10958 10960 10961 10962 10961 10960 10960 10960 10958 10957 10956 10955 10952 10950 10947 10944 10942 10940 10937 10935 10932 10928 10923 10919 10915 10911 10907
10889 10891 10900 10909 10914 10916 10920 10927 10934 10938 10942 10941 10945 10944 10948 10951 10951 10951 10952 10953 10955 10955 10955 10954 10954 10953 10952 10950 10949 10947 10944 10941 10937 10935 10932 10929 10925 10923 10920 10916 10914 10909 10903 10897
10874 10881 10880 10892 10894 10898 10909 10916 10921 10925 10930 10935 10941 10940 10940 10943 10943 10943 10945 10944 10947 10946 10947 10948 10947 10946 10945 10943 10941 10939 10936 10933 10930 10928 10925 10921 10918 10913 10908 10904 10901 10897 10894 10889
10856 10863 10863 10870 10877 10887 10898 10903 10906 10918 10923 10928 10932 10936 10931 10936 10936 10936 10936 10935 10936 10938 10940 10940 10940 10939 10936 10935 10934 10931 10928 10925 10923 10919 10916 10913 10910 10906 10902 10896 10892 10886 10881 10878
10837 10848 10848 10849 10871 10880 10883 10890 10897 10905 10912 10918 10922 10927 10927 10925 10927 10931 10931 10928 10927 10928 10929 10929 10930 10929 10928 10926 10925 10924 10921 10918 10916 10913 10909 10906 10902 10898 10894 10888 10882 10876 10870 10864
10819 10827 10833 10845 10854 10859 10864 10877 10883 10889 10902 10905 10910 10917 10915 10918 10919 10923 10923 10924 10921 10920 10921 10921 10917 10917 10915 10915 10914 10913 10911 10910 10909 10907 10905 10899 10895 10890 10884 10878 10871 10865 10860 10853
10798 10813 10823 10821 10832 10849 10859 10871 10875 10878 10885 10897 10901 10908 10903 10908 10912 10914 10914 10914 10914 10912 10909 10909 10907 10907 10904 10902 10901 10899 10898 10899 10900 10899 10895 10890 10886 10882 10874 10864 10859 10849 10843 10841
10771 10788 10803 10814 10833 10837 10843 10852 10857 10861 10871 10883 10891 10893 10891 10896 10899 10902 10903 10904 10904 10904 10898 10898 10898 10895 10894 10890 10888 10888 10885 10888 10888 10886 10884 10881 10876 10872 10862 10851 10841 10833 10830 10826
10745 10768 10782 10801 10802 10808 10823 10830 10835 10842 10858 10862 10875 10877 10881 10882 10886 10892 10895 10893 10895 10893 10890 10888 10887 10886 10881 10879 10876 10875 10874 10877 10875 10873 10872 10868 10866 10862 10853 10849 10839 10828 10823 10815
10726 10758 10768 10782 10783 10790 10802 10815 10819 10827 10837 10850 10860 10868 10869 10871 10876 10881 10883 10882 10882 10882 10879 10878 10876 10874 10869 10867 10865 10865 10862 10864 10864 10861 10858 10856 10855 10854 10849 10847 10854 10833 10816 10805
10714 10738 10747 10765 10766 10773 10776 10798 10806 10816 10823 10835 10846 10857 10852 10860 10866 10867 10867 10871 10871 10870 10865 10867 10864 10860 10857 10854 10853 10854 10854 10855 10855 10851 10846 10845 10842 10845 10840 10836 10832 10823 10809 10797
10693 10713 10722 10744 10742 10741 10780 10784 10790 10796 10804 10813 10830 10836 10841 10847 10850 10850 10853 10857 10857 10853 10853 10853 10850 10847 10845 10843 10842 10841 10840 10840 10839 10837 10834 10829 10828 10830 10828 10823 10817 10808 10797 10786
10676 10690 10705 10727 10730 10741 10758 10764 10769 10776 10791 10799 10812 10820 10827 10832 10831 10832 10838 10840 10836 10834 10837 10837 10834 10837 10835 10832 10828 10827 10828 10825 10825 10823 10819 10815 10813 10813 10811 10807 10800 10790 10782 10771
10656 10671 10687 10704 10706 10716 10739 10749 10753 10759 10768 10784 10795 10801 10809 10812 10810 10815 10817 10816 10814 10818 10822 10821 10820 10822 10824 10817 10813 10817 10813 10810 10811 10810 10807 10802 10795 10791 10788 10788 10779 10768 10757 10747
10644 10656 10672 10684 10690 10699 10717 10727 10732 10736 10759 10766 10779 10784 10788 10792 10793 10796 10799 10799 10801 10803 10805 10805 10807 10809 10803 10803 10802 10802 10798 10795 10795 10796 10793 10786 10778 10773 10771 10766 10755 10745 10739 10730
10629 10644 10656 10665 10679 10686 10702 10710 10716 10730 10745 10751 10759 10764 10767 10773 10775 10779 10777 10782 10785 10788 10791 10793 10793 10790 10788 10786 10788 10783 10781 10778 10776 10776 10774 10765 10759 10756 10752 10746 10738 10731 10724 10715
10616 10631 10639 10655 10663 10671 10685 10696 10704 10715 10724 10734 10742 10748 10753 10757 10759 10761 10762 10761 10768 10771 10771 10775 10773 10769 10770 10770 10767 10765 10760 10758 10757 10756 10751 10747 10741 10736 10733 10729 10724 10718 10711 10703
10603 10614 10625 10639 10649 10661 10672 10684 10693 10704 10712 10720 10727 10731 10735 10738 10741 10742 10746 10747 10748 10749 10751 10756 10757 10753 10752 10751 10748 10743 10741 10738 10736 10736 10732 10728 10724 10716 10713 10707 10703 10699 10696 10691
10591 10596 10613 10622 10636 10646 10658 10670 10678 10689 10692 10699 10707 10714 10718 10724 10726 10724 10728 10728 10730 10733 10738 10740 10739 10734 10733 10729 10728 10721 10721 10719 10718 10719 10718 10711 10708 10703 10698 10693 10691 10685 10680 10674
10580 10590 10604 10614 10624 10633 10649 10658 10662 10667 10674 10683 10690 10696 10698 10703 10705 10707 10708 10709 10711 10714 10718 10719 10717 10717 10711 10707 10706 10703 10700 10698 10697 10696 10700 10696 10692 10687 10682 10676 10668 10664 10658 10653